Location: *
(46.3500°N, 10.9000°E)
Time: 22:28:41
(UTC+00:00)

Explorer 7 - Pass Details

Date: 22 April 2021
Orbit: 484 x 677 km, 50.3° (Epoch: 05 May)

Event Time Altitude Azimuth Distance (km) Brightness Sun altitude
Rises 22:24:07 0° 290° (WNW) 2,746 10.8 -30.0°
Reaches altitude 10° 22:26:20 10° 293° (WNW) 1,881 9.9 -30.1°
Enters shadow 22:27:53 22° 298° (WNW) 1,299 9.0 -30.2°
Maximum altitude 22:30:37 66° 16° (NNE) 658 - -30.3°
Drops below altitude 10° 22:35:11 10° 99° (E) 1,999 - -30.5°
Sets 22:37:35 0° 103° (ESE) 2,935 - -30.5°
